Satellite-Ground Cal/Val Site Overpasses Predictions

Prediction of Satellite NPP Overpassing Cal/Val Site: Antarctic Dome C

Ground Cal/Val Site Location: Latitude: -75.10, Longitude: 123.35; Satellite-Ground Site NADIR distance within 100 km.

Table of predicted overpasses for the next 14.0 days since TLE Epoch: 3/30/2017
Interval Starting Time Ending Time Minimum Distance Time Minimum Distance (km)
1 03/31/2017 07:31:06 03/31/2017 07:31:35 03/31/2017 07:31:20 2.59
2 04/03/2017 14:54:33 04/03/2017 14:55:02 04/03/2017 14:54:48 19.73
3 04/04/2017 14:35:53 04/04/2017 14:36:07 04/04/2017 14:36:00 87.16
4 04/05/2017 07:37:24 04/05/2017 07:37:52 04/05/2017 07:37:38 34.19
5 04/06/2017 07:18:40 04/06/2017 07:18:58 04/06/2017 07:18:49 75.89
6 04/08/2017 15:00:55 04/08/2017 15:01:19 04/08/2017 15:01:07 57.00
7 04/09/2017 14:42:04 04/09/2017 14:42:29 04/09/2017 14:42:17 52.10
8 04/10/2017 07:43:46 04/10/2017 07:44:06 04/10/2017 07:43:56 69.59
9 04/11/2017 07:24:53 04/11/2017 07:25:20 04/11/2017 07:25:07 38.47


NCC Satellite Cal/Val Overpasses Prediction Service
